Regional Weather Roundup
Issued by NWS Cleveland, OH

Home | Current Version | Previous Version | Text Only | Print | Product List | Glossary On
Versions: 1 2 3 4 5 6 7 8 9 10 11 12 13 14 15 16 17 18 19 20 21 22 23 24 25 26 27 28 29 30 31 32 33 34 35 36 37 38 39 40 41 42 43 44 45 46 47 48 49 50
000
ASUS41 KCLE 202312
RWRCLE
OHIO REGIONAL WEATHER ROUNDUP
NATIONAL WEATHER SERVICE WILMINGTON, OH
600 PM EST SAT JAN 20 2018

NOTE: "FAIR" INDICATES FEW OR NO CLOUDS BELOW 12,000 FEET WITH NO
SIGNIFICANT WEATHER AND/OR OBSTRUCTIONS TO VISIBILITY.

OHZ001>008-015>018-024>027-034-035-043-044-210000-
   NORTHWEST OHIO

CITY           SKY/WX    TMP DP  RH WIND       PRES   REMARKS
DEFIANCE       FAIR      37  31  78 S7        30.02R
FINDLAY        FAIR      38  30  73 SW14      30.03R
TOLEDO EXPRESS FAIR      38  33  82 SW8       30.01R
TOLEDO EXEC    FAIR      36  30  79 SW9       30.03R
LIMA           MOCLDY    39  32  76 SW12      30.04R
$$

OHZ009>014-019>023-028>033-038-089-210000-
   NORTHEAST OHIO

CITY           SKY/WX    TMP DP  RH WIND       PRES   REMARKS
CLE-HOPKINS    FAIR      40  29  64 SW9       30.06R
CLE-LAKEFRONT  FAIR      41  28  60 S15G23    30.03R
CUY CO. ARPT   PTCLDY    41  28  60 SW12      30.03R
LORAIN-ELYRIA  FAIR      36  25  64 SW7       30.04R
ASHTABULA      FAIR      39  27  62 S5        30.02S
AKRON-CANTON   MOCLDY    39  27  62 SW10      30.03R
WOOSTER        FAIR      38  28  67 SW9       30.04R
MANSFIELD      FAIR      38  29  70 S15       30.03R
YOUNGSTOWN     MOCLDY    40  26  57 SW6       30.03R
$$

OHZ042-051>053-060>062-070>072-077>081-210000-
  SOUTHWEST OHIO

CITY           SKY/WX    TMP DP  RH WIND       PRES   REMARKS
CINC-COVINGTON NOT AVBL
CINC-LUNKEN    CLOUDY    45  34  65 SW8       30.11S
HAMILTON       CLOUDY    47  32  56 VRB3      30.09S
DAYTON         CLOUDY    43  35  73 S8        30.07R
WRIGHT-PAT AFB CLOUDY    42  31  66 S7        30.07R
DAYTON GENERAL CLOUDY    43  33  68 S7        30.07R
WILMINGTON     CLOUDY    40  33  76 SW7       30.08R
$$

OHZ036-037-039>041-045>050-054>059-063>069-073>076-082>088-210000-
  CENTRAL AND SOUTHEAST OHIO

CITY           SKY/WX    TMP DP  RH WIND       PRES   REMARKS
COLUMBUS       MOCLDY    42  29  59 S3        30.08R
OSU AIRPORT    MOCLDY    41  31  67 S6        30.08R
BOLTON FIELD   CLOUDY    41  30  65 SW8       30.08R
RICKENBACK AFB CLOUDY    39  31  73 SW6       30.08S
NEWARK         FAIR      41  28  60 S5        30.08R
MARION         FAIR      38  29  70 S10       30.06R
LANCASTER      MOCLDY    43  30  60 S5        30.09R
ZANESVILLE     FAIR      44  27  51 CALM      30.08R
NEW PHILLY     FAIR      42  27  55 S3        30.07S
$$




USA.gov is the U.S. government's official web portal to all federal, state and local government web resources and services.